Regional Weather Roundup
Issued by NWS Sioux Falls, SD

Home | Current Version | Previous Version | Text Only | Print | Product List | Glossary On
Versions: 1 2 3 4 5 6 7 8 9 10 11 12 13 14 15 16 17 18 19 20 21 22 23 24 25 26 27 28 29 30 31 32 33 34 35 36 37 38 39 40 41 42 43 44 45 46 47 48 49 50
000
ASUS43 KFSD 261310
RWRFSD

WEATHER ROUNDUP FOR SE SOUTH DAKOTA/SW MINNESOTA/NW IOWA
NATIONAL WEATHER SERVICE SIOUX FALLS SD
800 AM CDT THU APR 26 2018

NOTE: "FAIR" INDICATES FEW OR NO CLOUDS BELOW 12,000 FEET WITH NO
SIGNIFICANT WEATHER AND OR OBSTRUCTIONS TO VISIBILITY.


SDZ038>040-050-052>070-261400-
SOUTHEAST SOUTH DAKOTA

CITY           SKY/WX    TMP DP  RH WIND       PRES   REMARKS
BROOKINGS      MOSUNNY   45  36  70 NW12      29.90R
CHAMBERLAIN    MOSUNNY   47  34  59 N17G26    30.02R
HURON          MOSUNNY   44  34  67 N18G26    29.98R
MADISON        FAIR      43  37  81 W7        29.90R
MITCHELL       CLOUDY    46  37  71 N18G29    29.93R
SIOUX FALLS    CLOUDY    46  34  62 W7        29.89R
WINNER         FAIR      45  33  63 N17       30.06R
YANKTON        CLOUDY    49  37  63 SW12      29.90R
$$

MNZ071-072-080-081-089-090-097-098-261400-
SOUTHWEST MINNESOTA

CITY           SKY/WX    TMP DP  RH WIND       PRES   REMARKS
FAIRMONT       CLOUDY    44  35  70 SW7       29.90S
JACKSON        CLOUDY    43  34  70 SW12      29.89S
LUVERNE        CLOUDY    41  34  75 CALM      29.90R
MARSHALL       CLOUDY    46  35  65 W14       29.88R
MONTEVIDEO     CLOUDY    45  36  70 N10       29.86R
PIPESTONE      CLOUDY   N/A N/A N/A W7        29.89R
REDWOOD FALLS  CLOUDY    43  35  73 SW6       29.86R
TRACY          CLOUDY    46  37  70 W12       29.87R
WINDOM         PTSUNNY   46  27  46 SW10      29.88R
WORTHINGTON    CLOUDY    46  34  62 SW17      29.88R
$$

IAZ001>003-012>014-020>022-031-032-NEZ013-014-SDZ071-261400-
NORTHWEST IOWA

CITY           SKY/WX    TMP DP  RH WIND       PRES   REMARKS
CHEROKEE       CLOUDY    41  37  83 S8        29.93F
DENISON        CLOUDY    39  36  87 NW3       29.97R
ESTHERVILLE    CLOUDY    42  34  73 SW12      29.89F
LE MARS        CLOUDY    45  37  76 S7        29.92S
ORANGE CITY    CLOUDY    46  37  71 SW10      29.91R
SHELDON        CLOUDY    45  36  70 S12       29.89R
SIOUX CITY     CLOUDY    47  36  65 SW9       29.94S
SPENCER        CLOUDY    44  35  70 SW10      29.90F
STORM LAKE     CLOUDY    45  36  70 SW10      29.93S
$$

ABBREVIATIONS USED IN REMARKS
   TC - TEMPERATURE IN CELSIUS
  WCI - WIND CHILL INDEX
   HX - HEAT INDEX
  VSB - VISIBILITY





USA.gov is the U.S. government's official web portal to all federal, state and local government web resources and services.